Zeit;wasserstand;wasserstand_status;abfluss;abfluss_status
1984-11-01 00:00:00;667.0;0;0.402;0
1984-11-02 00:00:00;665.0;0;0.3793;0
1984-11-03 00:00:00;665.0;0;0.3699;0
1984-11-04 00:00:00;668.0;0;0.4247;0
1984-11-05 00:00:00;664.0;0;0.3726;0
1984-11-06 00:00:00;666.0;0;0.3988;0
1984-11-07 00:00:00;665.0;0;0.3938;0
1984-11-08 00:00:00;671.0;0;0.5029;0
1984-11-09 00:00:00;663.0;0;0.365;0
1984-11-10 00:00:00;660.0;0;0.3203;0
1984-11-11 00:00:00;664.0;0;0.3831;0
1984-11-12 00:00:00;660.0;0;0.3141;0
1984-11-13 00:00:00;655.0;0;0.2483;0
1984-11-14 00:00:00;654.0;0;0.2351;0
1984-11-15 00:00:00;653.0;0;0.2234;0
1984-11-16 00:00:00;653.0;0;0.2197;0
1984-11-17 00:00:00;653.0;0;0.2207;0
1984-11-18 00:00:00;652.0;0;0.2071;0
1984-11-19 00:00:00;652.0;0;0.208;0
1984-11-20 00:00:00;652.0;0;0.2088;0
1984-11-21 00:00:00;655.0;0;0.2471;0
1984-11-22 00:00:00;665.0;0;0.4297;0
1984-11-23 00:00:00;697.0;0;1.2076;0
1984-11-24 00:00:00;728.0;0;2.2663;0
1984-11-25 00:00:00;734.0;0;2.5372;0
1984-11-26 00:00:00;705.0;0;1.4462;0
1984-11-27 00:00:00;689.0;0;0.9736;0
1984-11-28 00:00:00;682.0;0;0.7913;0
1984-11-29 00:00:00;678.0;0;0.6931;0
1984-11-30 00:00:00;674.0;0;0.6068;0
1984-12-01 00:00:00;671.0;0;0.5337;0
1984-12-02 00:00:00;668.0;0;0.4771;0
1984-12-03 00:00:00;665.0;0;0.4319;0
1984-12-04 00:00:00;664.0;0;0.4101;0
1984-12-05 00:00:00;663.0;0;0.3918;0
1984-12-06 00:00:00;662.0;0;0.3717;0
1984-12-07 00:00:00;662.0;0;0.3695;0
1984-12-08 00:00:00;662.0;0;0.3695;0
1984-12-09 00:00:00;662.0;0;0.3695;0
1984-12-10 00:00:00;665.0;0;0.4302;0
1984-12-11 00:00:00;670.0;0;0.514;0
1984-12-12 00:00:00;666.0;0;0.4376;0
1984-12-13 00:00:00;663.0;0;0.3933;0
1984-12-14 00:00:00;661.0;0;0.3587;0
1984-12-15 00:00:00;659.0;0;0.3163;0
1984-12-16 00:00:00;657.0;0;0.2934;0
1984-12-17 00:00:00;656.0;0;0.2713;0
1984-12-18 00:00:00;657.0;0;0.2809;0
1984-12-19 00:00:00;658.0;0;0.2968;0
1984-12-20 00:00:00;667.0;0;0.4619;0
1984-12-21 00:00:00;695.0;0;1.1761;0
1984-12-22 00:00:00;701.0;0;1.3325;0
1984-12-23 00:00:00;689.0;0;0.9746;0
1984-12-24 00:00:00;681.0;0;0.7658;0
1984-12-25 00:00:00;675.0;0;0.6385;0
1984-12-26 00:00:00;671.0;0;0.5523;0
1984-12-27 00:00:00;669.0;0;0.5028;0
1984-12-28 00:00:00;667.0;0;0.4597;0
1984-12-29 00:00:00;665.0;0;0.4347;0
1984-12-30 00:00:00;664.0;0;0.4005;0
1984-12-31 00:00:00;662.0;0;0.3733;0
1985-01-01 00:00:00;662.0;0;0.3704;0
1985-01-02 00:00:00;661.0;0;0.355;0
1985-01-03 00:00:00;660.0;0;0.3343;0
1985-01-04 00:00:00;661.0;0;0.365;0
1985-01-05 00:00:00;676.0;0;0.6541;0
1985-01-06 00:00:00;665.0;0;0.4304;0
1985-01-07 00:00:00;661.0;0;0.3596;0
1985-01-08 00:00:00;660.0;0;0.3437;0
1985-01-09 00:00:00;662.0;0;0.3758;0
1985-01-10 00:00:00;660.0;0;0.345;0
1985-01-11 00:00:00;661.0;0;0.3631;0
1985-01-12 00:00:00;662.0;0;0.3676;0
1985-01-13 00:00:00;661.0;0;0.3599;0
1985-01-14 00:00:00;658.0;0;0.3173;0
1985-01-15 00:00:00;658.0;0;0.3032;0
1985-01-16 00:00:00;667.0;0;0.4643;0
1985-01-17 00:00:00;665.0;0;0.4291;0
1985-01-18 00:00:00;664.0;0;0.4123;0
1985-01-19 00:00:00;663.0;0;0.4007;0
1985-01-20 00:00:00;663.0;0;0.3938;0
1985-01-21 00:00:00;662.0;0;0.37;0
1985-01-22 00:00:00;679.0;0;0.7575;0
1985-01-23 00:00:00;678.0;0;0.7216;0
1985-01-24 00:00:00;673.0;0;0.5968;0
1985-01-25 00:00:00;668.0;0;0.4937;0
1985-01-26 00:00:00;666.0;0;0.4504;0
1985-01-27 00:00:00;664.0;0;0.4194;0
1985-01-28 00:00:00;662.0;0;0.3677;0
1985-01-29 00:00:00;662.0;0;0.3883;0
1985-01-30 00:00:00;725.0;0;2.1843;0
1985-01-31 00:00:00;715.0;0;1.8029;0
1985-02-01 00:00:00;705.0;0;1.478;0
1985-02-02 00:00:00;695.0;0;1.1642;0
1985-02-03 00:00:00;682.0;0;0.807;0
1985-02-04 00:00:00;676.0;0;0.6506;0
1985-02-05 00:00:00;675.0;0;0.6284;0
1985-02-06 00:00:00;675.0;0;0.6291;0
1985-02-07 00:00:00;670.0;0;0.5282;0
1985-02-08 00:00:00;665.0;0;0.4369;0
1985-02-09 00:00:00;663.0;0;0.3973;0
1985-02-10 00:00:00;662.0;0;0.3692;0
1985-02-11 00:00:00;660.0;0;0.3389;0
1985-02-12 00:00:00;657.0;0;0.291;0
1985-02-13 00:00:00;657.0;0;0.2972;0
1985-02-14 00:00:00;656.0;0;0.2793;0
1985-02-15 00:00:00;661.0;0;0.3525;0
1985-02-16 00:00:00;662.0;0;0.3706;0
1985-02-17 00:00:00;658.0;0;0.3114;0
1985-02-18 00:00:00;660.0;0;0.3479;0
1985-02-19 00:00:00;660.0;0;0.3413;0
1985-02-20 00:00:00;660.0;0;0.3336;0
1985-02-21 00:00:00;661.0;0;0.3579;0
1985-02-22 00:00:00;659.0;0;0.3162;0
1985-02-23 00:00:00;654.0;0;0.2502;0
1985-02-24 00:00:00;649.0;0;0.1759;0
1985-02-25 00:00:00;649.0;0;0.1759;0
1985-02-26 00:00:00;650.0;0;0.1861;0
1985-02-27 00:00:00;650.0;0;0.1944;0
1985-02-28 00:00:00;651.0;0;0.1947;0
1985-03-01 00:00:00;650.0;0;0.1873;0
1985-03-02 00:00:00;651.0;0;0.2059;0
1985-03-03 00:00:00;653.0;0;0.2331;0
1985-03-04 00:00:00;654.0;0;0.2464;0
1985-03-05 00:00:00;658.0;0;0.2968;0
1985-03-06 00:00:00;658.0;0;0.3088;0
1985-03-07 00:00:00;668.0;0;0.4756;0
1985-03-08 00:00:00;667.0;0;0.4656;0
1985-03-09 00:00:00;664.0;0;0.3946;0
1985-03-10 00:00:00;662.0;0;0.3584;0
1985-03-11 00:00:00;662.0;0;0.3691;0
1985-03-12 00:00:00;662.0;0;0.3547;0
1985-03-13 00:00:00;661.0;0;0.3363;0
1985-03-14 00:00:00;662.0;0;0.3524;0
1985-03-15 00:00:00;663.0;0;0.3745;0
1985-03-16 00:00:00;663.0;0;0.3714;0
1985-03-17 00:00:00;660.0;0;0.3258;0
1985-03-18 00:00:00;659.0;0;0.3036;0
1985-03-19 00:00:00;658.0;0;0.2919;0
1985-03-20 00:00:00;660.0;0;0.3188;0
1985-03-21 00:00:00;662.0;0;0.3477;0
1985-03-22 00:00:00;661.0;0;0.3327;0
1985-03-23 00:00:00;659.0;0;0.2969;0
1985-03-24 00:00:00;659.0;0;0.2956;0
1985-03-25 00:00:00;659.0;0;0.2969;0
1985-03-26 00:00:00;663.0;0;0.3482;0
1985-03-27 00:00:00;673.0;0;0.5255;0
1985-03-28 00:00:00;668.0;0;0.4438;0
1985-03-29 00:00:00;667.0;0;0.4158;0
1985-03-30 00:00:00;711.0;0;1.491;0
1985-03-31 00:00:00;713.0;0;1.5297;0
1985-04-01 00:00:00;704.0;0;1.2468;0
1985-04-02 00:00:00;704.0;0;1.2583;0
1985-04-03 00:00:00;688.0;0;0.8237;0
1985-04-04 00:00:00;683.0;0;0.7169;0
1985-04-05 00:00:00;678.0;0;0.6074;0
1985-04-06 00:00:00;674.0;0;0.5254;0
1985-04-07 00:00:00;673.0;0;0.5024;0
1985-04-08 00:00:00;672.0;0;0.4809;0
1985-04-09 00:00:00;677.0;0;0.5624;0
1985-04-10 00:00:00;674.0;0;0.4972;0
1985-04-11 00:00:00;672.0;0;0.4752;0
1985-04-12 00:00:00;670.0;0;0.4352;0
1985-04-13 00:00:00;670.0;0;0.4339;0
1985-04-14 00:00:00;671.0;0;0.4423;0
1985-04-15 00:00:00;667.0;0;0.383;0
1985-04-16 00:00:00;665.0;0;0.3412;0
1985-04-17 00:00:00;663.0;0;0.3103;0
1985-04-18 00:00:00;660.0;0;0.2716;0
1985-04-19 00:00:00;657.0;0;0.2266;0
1985-04-20 00:00:00;656.0;0;0.2162;0
1985-04-21 00:00:00;654.0;0;0.1962;0
1985-04-22 00:00:00;653.0;0;0.1817;0
1985-04-23 00:00:00;653.0;0;0.1784;0
1985-04-24 00:00:00;653.0;0;0.1753;0
1985-04-25 00:00:00;654.0;0;0.1888;0
1985-04-26 00:00:00;654.0;0;0.1855;0
1985-04-27 00:00:00;656.0;0;0.2126;0
1985-04-28 00:00:00;657.0;0;0.2312;0
1985-04-29 00:00:00;660.0;0;0.2709;0
1985-04-30 00:00:00;662.0;0;0.2857;0
1985-05-01 00:00:00;659.0;0;0.2437;0
1985-05-02 00:00:00;661.0;0;0.2809;0
1985-05-03 00:00:00;662.0;0;0.2936;0
1985-05-04 00:00:00;660.0;0;0.2618;0
1985-05-05 00:00:00;659.0;0;0.2515;0
1985-05-06 00:00:00;657.0;0;0.2251;0
1985-05-07 00:00:00;655.0;0;0.1981;0
1985-05-08 00:00:00;653.0;0;0.1792;0
1985-05-09 00:00:00;653.0;0;0.174;0
1985-05-10 00:00:00;652.0;0;0.1642;0
1985-05-11 00:00:00;652.0;0;0.1598;0
1985-05-12 00:00:00;651.0;0;0.1512;0
1985-05-13 00:00:00;650.0;0;0.1421;0
1985-05-14 00:00:00;649.0;0;0.134;0
1985-05-15 00:00:00;649.0;0;0.1293;0
1985-05-16 00:00:00;649.0;0;0.1282;0
1985-05-17 00:00:00;649.0;0;0.1248;0
1985-05-18 00:00:00;648.0;0;0.1188;0
1985-05-19 00:00:00;648.0;0;0.1181;0
1985-05-20 00:00:00;648.0;0;0.1174;0
1985-05-21 00:00:00;648.0;0;0.1168;0
1985-05-22 00:00:00;648.0;0;0.1154;0
1985-05-23 00:00:00;648.0;0;0.1147;0
1985-05-24 00:00:00;648.0;0;0.1141;0
1985-05-25 00:00:00;648.0;0;0.1127;0
1985-05-26 00:00:00;648.0;0;0.112;0
1985-05-27 00:00:00;648.0;0;0.1114;0
1985-05-28 00:00:00;648.0;0;0.11;0
1985-05-29 00:00:00;648.0;0;0.1093;0
1985-05-30 00:00:00;648.0;0;0.1056;0
1985-05-31 00:00:00;648.0;0;0.1043;0
1985-06-01 00:00:00;648.0;0;0.1066;0
1985-06-02 00:00:00;648.0;0;0.106;0
1985-06-03 00:00:00;648.0;0;0.1046;0
1985-06-04 00:00:00;648.0;0;0.1039;0
1985-06-05 00:00:00;648.0;0;0.1033;0
1985-06-06 00:00:00;648.0;0;0.1019;0
1985-06-07 00:00:00;648.0;0;0.1012;0
1985-06-08 00:00:00;648.0;0;0.1006;0
1985-06-09 00:00:00;648.0;0;0.0992;0
1985-06-10 00:00:00;648.0;0;0.0985;0
1985-06-11 00:00:00;648.0;0;0.0979;0
1985-06-12 00:00:00;649.0;0;0.1027;0
1985-06-13 00:00:00;651.0;0;0.1173;0
1985-06-14 00:00:00;649.0;0;0.1019;0
1985-06-15 00:00:00;649.0;0;0.1051;0
1985-06-16 00:00:00;650.0;0;0.1073;0
1985-06-17 00:00:00;648.0;0;0.0952;0
1985-06-18 00:00:00;648.0;0;0.0925;0
1985-06-19 00:00:00;648.0;0;0.0911;0
1985-06-20 00:00:00;648.0;0;0.0904;0
1985-06-21 00:00:00;648.0;0;0.0898;0
1985-06-22 00:00:00;648.0;0;0.0891;0
1985-06-23 00:00:00;648.0;0;0.0884;0
1985-06-24 00:00:00;648.0;0;0.0877;0
1985-06-25 00:00:00;650.0;0;0.1031;0
1985-06-26 00:00:00;654.0;0;0.1276;0
1985-06-27 00:00:00;651.0;0;0.1052;0
1985-06-28 00:00:00;649.0;0;0.0923;0
1985-06-29 00:00:00;649.0;0;0.0916;0
1985-06-30 00:00:00;649.0;0;0.0916;0
1985-07-01 00:00:00;649.0;0;0.0916;0
1985-07-02 00:00:00;649.0;0;0.0908;0
1985-07-03 00:00:00;649.0;0;0.0901;0
1985-07-04 00:00:00;649.0;0;0.0901;0
1985-07-05 00:00:00;649.0;0;0.0901;0
1985-07-06 00:00:00;649.0;0;0.0901;0
1985-07-07 00:00:00;649.0;0;0.0901;0
1985-07-08 00:00:00;649.0;0;0.0894;0
1985-07-09 00:00:00;649.0;0;0.0887;0
1985-07-10 00:00:00;649.0;0;0.0887;0
1985-07-11 00:00:00;649.0;0;0.0887;0
1985-07-12 00:00:00;649.0;0;0.0887;0
1985-07-13 00:00:00;649.0;0;0.0887;0
1985-07-14 00:00:00;649.0;0;0.0887;0
1985-07-15 00:00:00;649.0;0;0.0894;0
1985-07-16 00:00:00;649.0;0;0.0901;0
1985-07-17 00:00:00;649.0;0;0.0908;0
1985-07-18 00:00:00;648.0;0;0.0874;0
1985-07-19 00:00:00;648.0;0;0.0873;0
1985-07-20 00:00:00;649.0;0;0.0952;0
1985-07-21 00:00:00;649.0;0;0.0959;0
1985-07-22 00:00:00;649.0;0;0.0938;0
1985-07-23 00:00:00;650.0;0;0.1029;0
1985-07-24 00:00:00;649.0;0;0.0996;0
1985-07-25 00:00:00;649.0;0;0.101;0
1985-07-26 00:00:00;649.0;0;0.1028;0
1985-07-27 00:00:00;650.0;0;0.1116;0
1985-07-28 00:00:00;650.0;0;0.1131;0
1985-07-29 00:00:00;649.0;0;0.1081;0
1985-07-30 00:00:00;649.0;0;0.1086;0
1985-07-31 00:00:00;656.0;0;0.1703;0
1985-08-01 00:00:00;666.0;0;0.2811;0
1985-08-02 00:00:00;659.0;0;0.2052;0
1985-08-03 00:00:00;657.0;0;0.1863;0
1985-08-04 00:00:00;666.0;0;0.3014;0
1985-08-05 00:00:00;675.0;0;0.4294;0
1985-08-06 00:00:00;669.0;0;0.343;0
1985-08-07 00:00:00;662.0;0;0.2537;0
1985-08-08 00:00:00;659.0;0;0.2191;0
1985-08-09 00:00:00;656.0;0;0.1949;0
1985-08-10 00:00:00;655.0;0;0.1846;0
1985-08-11 00:00:00;658.0;0;0.222;0
1985-08-12 00:00:00;656.0;0;0.2038;0
1985-08-13 00:00:00;654.0;0;0.1764;0
1985-08-14 00:00:00;653.0;0;0.1681;0
1985-08-15 00:00:00;660.0;0;0.2535;0
1985-08-16 00:00:00;660.0;0;0.2479;0
1985-08-17 00:00:00;662.0;0;0.2738;0
1985-08-18 00:00:00;661.0;0;0.2691;0
1985-08-19 00:00:00;658.0;0;0.2295;0
1985-08-20 00:00:00;660.0;0;0.2572;0
1985-08-21 00:00:00;659.0;0;0.2431;0
1985-08-22 00:00:00;657.0;0;0.215;0
1985-08-23 00:00:00;656.0;0;0.2048;0
1985-08-24 00:00:00;656.0;0;0.2008;0
1985-08-25 00:00:00;655.0;0;0.1898;0
1985-08-26 00:00:00;657.0;0;0.2157;0
1985-08-27 00:00:00;658.0;0;0.2195;0
1985-08-28 00:00:00;657.0;0;0.2023;0
1985-08-29 00:00:00;655.0;0;0.1832;0
1985-08-30 00:00:00;656.0;0;0.1883;0
1985-08-31 00:00:00;656.0;0;0.1835;0
1985-09-01 00:00:00;655.0;0;0.1754;0
1985-09-02 00:00:00;656.0;0;0.183;0
1985-09-03 00:00:00;656.0;0;0.1829;0
1985-09-04 00:00:00;662.0;0;0.2395;0
1985-09-05 00:00:00;663.0;0;0.2487;0
1985-09-06 00:00:00;664.0;0;0.2543;0
1985-09-07 00:00:00;664.0;0;0.2538;0
1985-09-08 00:00:00;664.0;0;0.2487;0
1985-09-09 00:00:00;662.0;0;0.2243;0
1985-09-10 00:00:00;660.0;0;0.1956;0
1985-09-11 00:00:00;659.0;0;0.1826;0
1985-09-12 00:00:00;658.0;0;0.1702;0
1985-09-13 00:00:00;657.0;0;0.1599;0
1985-09-14 00:00:00;657.0;0;0.1563;0
1985-09-15 00:00:00;657.0;0;0.1527;0
1985-09-16 00:00:00;660.0;0;0.1731;0
1985-09-17 00:00:00;683.0;0;0.4306;0
1985-09-18 00:00:00;686.0;0;0.4436;0
1985-09-19 00:00:00;679.0;0;0.3561;0
1985-09-20 00:00:00;675.0;0;0.3036;0
1985-09-21 00:00:00;672.0;0;0.2678;0
1985-09-22 00:00:00;673.0;0;0.2716;0
1985-09-23 00:00:00;674.0;0;0.2687;0
1985-09-24 00:00:00;675.0;0;0.2828;0
1985-09-25 00:00:00;678.0;0;0.2986;0
1985-09-26 00:00:00;674.0;0;0.2603;0
1985-09-27 00:00:00;672.0;0;0.2347;0
1985-09-28 00:00:00;672.0;0;0.2278;0
1985-09-29 00:00:00;674.0;0;0.2415;0
1985-09-30 00:00:00;672.0;0;0.2268;0
1985-10-01 00:00:00;670.0;0;0.2084;0
1985-10-02 00:00:00;670.0;0;0.2037;0
1985-10-03 00:00:00;674.0;0;0.2367;0
1985-10-04 00:00:00;672.0;0;0.2267;0
1985-10-05 00:00:00;671.0;0;0.2115;0
1985-10-06 00:00:00;673.0;0;0.2331;0
1985-10-07 00:00:00;673.0;0;0.2326;0
1985-10-08 00:00:00;674.0;0;0.2412;0
1985-10-09 00:00:00;678.0;0;0.2849;0
1985-10-10 00:00:00;691.0;0;0.4272;0
1985-10-11 00:00:00;691.0;0;0.4298;0
1985-10-12 00:00:00;686.0;0;0.3783;0
1985-10-13 00:00:00;681.0;0;0.3208;0
1985-10-14 00:00:00;677.0;0;0.287;0
1985-10-15 00:00:00;675.0;0;0.2681;0
1985-10-16 00:00:00;673.0;0;0.2491;0
1985-10-17 00:00:00;673.0;0;0.2496;0
1985-10-18 00:00:00;670.0;0;0.2261;0
1985-10-19 00:00:00;668.0;0;0.209;0
1985-10-20 00:00:00;667.0;0;0.2038;0
1985-10-21 00:00:00;670.0;0;0.2354;0
1985-10-22 00:00:00;676.0;0;0.2942;0
1985-10-23 00:00:00;678.0;0;0.3219;0
1985-10-24 00:00:00;665.0;0;0.1997;0
1985-10-25 00:00:00;663.0;0;0.1827;0
1985-10-26 00:00:00;663.0;0;0.1817;0
1985-10-27 00:00:00;662.0;0;0.1817;0
1985-10-28 00:00:00;662.0;0;0.1813;0
1985-10-29 00:00:00;655.0;0;0.1263;0
1985-10-30 00:00:00;651.0;0;0.1011;0
1985-10-31 00:00:00;651.0;0;0.1076;0
1985-11-01 00:00:00;654.0;0;0.1305;0
1985-11-02 00:00:00;660.0;0;0.1963;0
1985-11-03 00:00:00;663.0;0;0.2415;0
1985-11-04 00:00:00;664.0;0;0.2624;0
1985-11-05 00:00:00;670.0;0;0.3516;0
1985-11-06 00:00:00;680.0;0;0.518;0
1985-11-07 00:00:00;682.0;0;0.5571;0
1985-11-08 00:00:00;676.0;0;0.464;0
1985-11-09 00:00:00;678.0;0;0.5065;0
1985-11-10 00:00:00;717.0;0;1.3795;0
1985-11-11 00:00:00;715.0;0;1.3206;0
1985-11-12 00:00:00;699.0;0;0.9416;0
1985-11-13 00:00:00;687.0;0;0.6836;0
1985-11-14 00:00:00;680.0;0;0.5651;0
1985-11-15 00:00:00;676.0;0;0.4933;0
1985-11-16 00:00:00;673.0;0;0.4428;0
1985-11-17 00:00:00;670.0;0;0.4001;0
1985-11-18 00:00:00;668.0;0;0.3787;0
1985-11-19 00:00:00;666.0;0;0.3588;0
1985-11-20 00:00:00;664.0;0;0.3299;0
1985-11-21 00:00:00;664.0;0;0.3254;0
1985-11-22 00:00:00;664.0;0;0.3313;0
1985-11-23 00:00:00;666.0;0;0.3578;0
1985-11-24 00:00:00;665.0;0;0.3506;0
1985-11-25 00:00:00;664.0;0;0.3388;0
1985-11-26 00:00:00;663.0;0;0.3173;0
1985-11-27 00:00:00;661.0;0;0.2926;0
1985-11-28 00:00:00;661.0;0;0.2904;0
1985-11-29 00:00:00;659.0;0;0.2741;0
1985-11-30 00:00:00;659.0;0;0.2638;0
1985-12-01 00:00:00;661.0;0;0.2977;0
1985-12-02 00:00:00;705.0;0;1.2933;0
1985-12-03 00:00:00;708.0;0;1.3455;0
1985-12-04 00:00:00;691.0;0;0.9089;0
1985-12-05 00:00:00;694.0;0;0.9811;0
1985-12-06 00:00:00;702.0;0;1.1943;0
1985-12-07 00:00:00;711.0;0;1.4769;0
1985-12-08 00:00:00;699.0;0;1.1207;0
1985-12-09 00:00:00;690.0;0;0.9051;0
1985-12-10 00:00:00;704.0;0;1.2613;0
1985-12-11 00:00:00;693.0;0;0.9755;0
1985-12-12 00:00:00;684.0;0;0.7606;0
1985-12-13 00:00:00;688.0;0;0.8573;0
1985-12-14 00:00:00;693.0;0;0.9988;0
1985-12-15 00:00:00;690.0;0;0.9161;0
1985-12-16 00:00:00;687.0;0;0.8289;0
1985-12-17 00:00:00;683.0;0;0.7428;0
1985-12-18 00:00:00;684.0;0;0.7739;0
1985-12-19 00:00:00;716.0;0;1.6534;0
1985-12-20 00:00:00;711.0;0;1.4913;0
1985-12-21 00:00:00;717.0;0;1.7144;0
1985-12-22 00:00:00;708.0;0;1.4016;0
1985-12-23 00:00:00;694.0;0;1.0271;0
1985-12-24 00:00:00;687.0;0;0.8429;0
1985-12-25 00:00:00;683.0;0;0.747;0
1985-12-26 00:00:00;684.0;0;0.7644;0
1985-12-27 00:00:00;679.0;0;0.6517;0
1985-12-28 00:00:00;675.0;0;0.5571;0
1985-12-29 00:00:00;671.0;0;0.4886;0
1985-12-30 00:00:00;669.0;0;0.4385;0
1985-12-31 00:00:00;667.0;0;0.411;0
1986-01-01 00:00:00;666.0;0;0.3928;0
1986-01-02 00:00:00;665.0;0;0.3691;0
1986-01-03 00:00:00;662.0;0;0.3192;0
1986-01-04 00:00:00;661.0;0;0.3032;0
1986-01-05 00:00:00;661.0;0;0.3017;0
1986-01-06 00:00:00;661.0;0;0.3003;0
1986-01-07 00:00:00;661.0;0;0.2973;0
1986-01-08 00:00:00;660.0;0;0.2815;0
1986-01-09 00:00:00;664.0;0;0.3346;0
1986-01-10 00:00:00;666.0;0;0.369;0
1986-01-11 00:00:00;667.0;0;0.3881;0
1986-01-12 00:00:00;685.0;0;0.7677;0
1986-01-13 00:00:00;733.0;0;2.041;0
1986-01-14 00:00:00;739.0;0;2.2256;0
1986-01-15 00:00:00;726.0;0;1.8079;0
1986-01-16 00:00:00;704.0;0;1.143;0
1986-01-17 00:00:00;689.0;0;0.7776;0
1986-01-18 00:00:00;683.0;0;0.6552;0
1986-01-19 00:00:00;710.0;0;1.3603;0
1986-01-20 00:00:00;755.0;0;2.7828;0
1986-01-21 00:00:00;742.0;0;2.3013;0
1986-01-22 00:00:00;732.0;0;1.996;0
1986-01-23 00:00:00;728.0;0;1.8756;0
1986-01-24 00:00:00;726.0;0;1.8221;0
1986-01-25 00:00:00;711.0;0;1.3751;0
1986-01-26 00:00:00;693.0;0;0.9239;0
1986-01-27 00:00:00;684.0;0;0.7045;0
1986-01-28 00:00:00;680.0;0;0.6303;0
1986-01-29 00:00:00;676.0;0;0.5602;0
1986-01-30 00:00:00;673.0;0;0.4997;0
1986-01-31 00:00:00;671.0;0;0.4574;0
1986-02-01 00:00:00;669.0;0;0.4339;0
1986-02-02 00:00:00;668.0;0;0.4125;0
1986-02-03 00:00:00;665.0;0;0.37;0
1986-02-04 00:00:00;663.0;0;0.3353;0
1986-02-05 00:00:00;661.0;0;0.3022;0
1986-02-06 00:00:00;659.0;0;0.2798;0
1986-02-07 00:00:00;658.0;0;0.2574;0
1986-02-08 00:00:00;658.0;0;0.2563;0
1986-02-09 00:00:00;658.0;0;0.2555;0
1986-02-10 00:00:00;657.0;0;0.25;0
1986-02-11 00:00:00;655.0;0;0.2211;0
1986-02-12 00:00:00;655.0;0;0.2211;0
1986-02-13 00:00:00;655.0;0;0.2211;0
1986-02-14 00:00:00;655.0;0;0.2163;0
1986-02-15 00:00:00;655.0;0;0.2262;0
1986-02-16 00:00:00;655.0;0;0.2265;0
1986-02-17 00:00:00;653.0;0;0.1978;0
1986-02-18 00:00:00;650.0;0;0.1661;0
1986-02-19 00:00:00;659.0;0;0.2794;0
1986-02-20 00:00:00;660.0;0;0.2899;0
1986-02-21 00:00:00;659.0;0;0.2746;0
1986-02-22 00:00:00;659.0;0;0.2764;0
1986-02-23 00:00:00;658.0;0;0.2664;0
1986-02-24 00:00:00;658.0;0;0.267;0
1986-02-25 00:00:00;656.0;0;0.2393;0
1986-02-26 00:00:00;659.0;0;0.2767;0
1986-02-27 00:00:00;660.0;0;0.287;0
1986-02-28 00:00:00;659.0;0;0.2738;0
1986-03-01 00:00:00;658.0;0;0.2636;0
1986-03-02 00:00:00;658.0;0;0.268;0
1986-03-03 00:00:00;660.0;0;0.2872;0
1986-03-04 00:00:00;661.0;0;0.3102;0
1986-03-05 00:00:00;680.0;0;0.6638;0
1986-03-06 00:00:00;681.0;0;0.6825;0
1986-03-07 00:00:00;667.0;0;0.4063;0
1986-03-08 00:00:00;665.0;0;0.3637;0
1986-03-09 00:00:00;663.0;0;0.3424;0
1986-03-10 00:00:00;665.0;0;0.3617;0
1986-03-11 00:00:00;665.0;0;0.3685;0
1986-03-12 00:00:00;664.0;0;0.3431;0
1986-03-13 00:00:00;662.0;0;0.3249;0
1986-03-14 00:00:00;661.0;0;0.311;0
1986-03-15 00:00:00;661.0;0;0.3097;0
1986-03-16 00:00:00;662.0;0;0.3198;0
1986-03-17 00:00:00;662.0;0;0.3211;0
1986-03-18 00:00:00;663.0;0;0.3352;0
1986-03-19 00:00:00;662.0;0;0.3269;0
1986-03-20 00:00:00;662.0;0;0.3217;0
1986-03-21 00:00:00;664.0;0;0.3444;0
1986-03-22 00:00:00;662.0;0;0.3211;0
1986-03-23 00:00:00;674.0;0;0.5224;0
1986-03-24 00:00:00;675.0;0;0.5542;0
1986-03-25 00:00:00;695.0;0;1.0007;0
1986-03-26 00:00:00;691.0;0;0.8877;0
1986-03-27 00:00:00;687.0;0;0.7994;0
1986-03-28 00:00:00;701.0;0;1.1559;0
1986-03-29 00:00:00;701.0;0;1.1664;0
1986-03-30 00:00:00;703.0;0;1.2196;0
1986-03-31 00:00:00;696.0;0;1.0393;0
1986-04-01 00:00:00;690.0;0;0.8784;0
1986-04-02 00:00:00;687.0;0;0.8062;0
1986-04-03 00:00:00;682.0;0;0.6932;0
1986-04-04 00:00:00;679.0;0;0.6273;0
1986-04-05 00:00:00;675.0;0;0.5567;0
1986-04-06 00:00:00;672.0;0;0.4932;0
1986-04-07 00:00:00;670.0;0;0.4579;0
1986-04-08 00:00:00;667.0;0;0.4096;0
1986-04-09 00:00:00;665.0;0;0.3848;0
1986-04-10 00:00:00;663.0;0;0.3518;0
1986-04-11 00:00:00;664.0;0;0.3622;0
1986-04-12 00:00:00;662.0;0;0.3395;0
1986-04-13 00:00:00;662.0;0;0.3355;0
1986-04-14 00:00:00;662.0;0;0.3296;0
1986-04-15 00:00:00;662.0;0;0.3293;0
1986-04-16 00:00:00;662.0;0;0.3297;0
1986-04-17 00:00:00;661.0;0;0.3164;0
1986-04-18 00:00:00;665.0;0;0.381;0
1986-04-19 00:00:00;675.0;0;0.5769;0
1986-04-20 00:00:00;671.0;0;0.4965;0
1986-04-21 00:00:00;667.0;0;0.4221;0
1986-04-22 00:00:00;666.0;0;0.4059;0
1986-04-23 00:00:00;663.0;0;0.3555;0
1986-04-24 00:00:00;662.0;0;0.3367;0
1986-04-25 00:00:00;661.0;0;0.327;0
1986-04-26 00:00:00;659.0;0;0.3006;0
1986-04-27 00:00:00;658.0;0;0.2848;0
1986-04-28 00:00:00;657.0;0;0.2616;0
1986-04-29 00:00:00;656.0;0;0.2513;0
1986-04-30 00:00:00;656.0;0;0.2524;0
1986-05-01 00:00:00;655.0;0;0.239;0
1986-05-02 00:00:00;653.0;0;0.214;0
1986-05-03 00:00:00;653.0;0;0.2076;0
1986-05-04 00:00:00;653.0;0;0.2094;0
1986-05-05 00:00:00;653.0;0;0.2147;0
1986-05-06 00:00:00;653.0;0;0.213;0
1986-05-07 00:00:00;653.0;0;0.2159;0
1986-05-08 00:00:00;660.0;0;0.3188;0
1986-05-09 00:00:00;658.0;0;0.2837;0
1986-05-10 00:00:00;657.0;0;0.2693;0
1986-05-11 00:00:00;659.0;0;0.2926;0
1986-05-12 00:00:00;659.0;0;0.3042;0
1986-05-13 00:00:00;658.0;0;0.2824;0
1986-05-14 00:00:00;658.0;0;0.2881;0
1986-05-15 00:00:00;659.0;0;0.2957;0
1986-05-16 00:00:00;664.0;0;0.3685;0
1986-05-17 00:00:00;659.0;0;0.2889;0
1986-05-18 00:00:00;658.0;0;0.2718;0
1986-05-19 00:00:00;657.0;0;0.2552;0
1986-05-20 00:00:00;655.0;0;0.2268;0
1986-05-21 00:00:00;653.0;0;0.211;0
1986-05-22 00:00:00;651.0;0;0.1842;0
1986-05-23 00:00:00;651.0;0;0.1788;0
1986-05-24 00:00:00;651.0;0;0.178;0
1986-05-25 00:00:00;651.0;0;0.1763;0
1986-05-26 00:00:00;650.0;0;0.1635;0
1986-05-27 00:00:00;649.0;0;0.1566;0
1986-05-28 00:00:00;649.0;0;0.1498;0
1986-05-29 00:00:00;649.0;0;0.1482;0
1986-05-30 00:00:00;648.0;0;0.139;0
1986-05-31 00:00:00;647.0;0;0.1298;0
1986-06-01 00:00:00;647.0;0;0.1268;0
1986-06-02 00:00:00;647.0;0;0.1262;0
1986-06-03 00:00:00;647.0;0;0.1256;0
1986-06-04 00:00:00;649.0;0;0.142;0
1986-06-05 00:00:00;647.0;0;0.1243;0
1986-06-06 00:00:00;652.0;0;0.1802;0
1986-06-07 00:00:00;656.0;0;0.22;0
1986-06-08 00:00:00;657.0;0;0.234;0
1986-06-09 00:00:00;655.0;0;0.2099;0
1986-06-10 00:00:00;652.0;0;0.1752;0
1986-06-11 00:00:00;651.0;0;0.1569;0
1986-06-12 00:00:00;650.0;0;0.1474;0
1986-06-13 00:00:00;649.0;0;0.1344;0
1986-06-14 00:00:00;648.0;0;0.1244;0
1986-06-15 00:00:00;647.0;0;0.1152;0
1986-06-16 00:00:00;646.0;0;0.1078;0
1986-06-17 00:00:00;646.0;0;0.1043;0
1986-06-18 00:00:00;647.0;0;0.1126;0
1986-06-19 00:00:00;646.0;0;0.105;0
1986-06-20 00:00:00;645.0;0;0.097;0
1986-06-21 00:00:00;645.0;0;0.0964;0
1986-06-22 00:00:00;645.0;0;0.0959;0
1986-06-23 00:00:00;645.0;0;0.0954;0
1986-06-24 00:00:00;645.0;0;0.0948;0
1986-06-25 00:00:00;645.0;0;0.0943;0
1986-06-26 00:00:00;645.0;0;0.0938;0
1986-06-27 00:00:00;645.0;0;0.0933;0
1986-06-28 00:00:00;645.0;0;0.0927;0
1986-06-29 00:00:00;645.0;0;0.0922;0
1986-06-30 00:00:00;644.0;0;0.083;0
1986-07-01 00:00:00;642.0;0;0.0693;0
1986-07-02 00:00:00;642.0;0;0.0689;0
1986-07-03 00:00:00;642.0;0;0.0685;0
1986-07-04 00:00:00;642.0;0;0.0681;0
1986-07-05 00:00:00;644.0;0;0.0851;0
1986-07-06 00:00:00;647.0;0;0.1012;0
1986-07-07 00:00:00;645.0;0;0.0867;0
1986-07-08 00:00:00;644.0;0;0.0781;0
1986-07-09 00:00:00;643.0;0;0.0734;0
1986-07-10 00:00:00;643.0;0;0.0762;0
1986-07-11 00:00:00;644.0;0;0.0795;0
1986-07-12 00:00:00;644.0;0;0.0779;0
1986-07-13 00:00:00;643.0;0;0.0716;0
1986-07-14 00:00:00;643.0;0;0.0692;0
1986-07-15 00:00:00;642.0;0;0.0641;0
1986-07-16 00:00:00;642.0;0;0.0641;0
1986-07-17 00:00:00;642.0;0;0.0637;0
1986-07-18 00:00:00;642.0;0;0.0633;0
1986-07-19 00:00:00;642.0;0;0.0639;0
1986-07-20 00:00:00;642.0;0;0.064;0
1986-07-21 00:00:00;642.0;0;0.0625;0
1986-07-22 00:00:00;642.0;0;0.0625;0
1986-07-23 00:00:00;642.0;0;0.0621;0
1986-07-24 00:00:00;649.0;0;0.1131;0